Time,TemperatureF,DewpointF,PressureIn,WindDirection,WindDirectionDegrees,WindSpeedMPH,WindSpeedGustMPH,Humidity,HourlyPrecipIn,Conditions,Clouds,dailyrainin,SoftwareType,DateUTC
2013-05-05 00:02:00,39.0,36.0,30.38,WNW,295,1.0,-999.0,90,-99.99,,,-99.99,,2013-05-05 04:02:00,
2013-05-05 00:12:00,39.0,36.0,30.38,WNW,295,1.0,-999.0,90,-99.99,,,-99.99,,2013-05-05 04:12:00,
2013-05-05 00:23:00,39.0,36.0,30.37,WNW,295,0.0,-999.0,90,-99.99,,,-99.99,,2013-05-05 04:23:00,
2013-05-05 00:32:00,39.0,36.0,30.37,WNW,298,0.0,-999.0,90,-99.99,,,-99.99,,2013-05-05 04:32:00,
2013-05-05 00:43:00,39.0,36.0,30.37,WNW,298,0.0,-999.0,90,-99.99,,,-99.99,,2013-05-05 04:43:00,
2013-05-05 00:53:00,39.0,37.0,30.37,WNW,301,0.0,-999.0,91,-99.99,,,-99.99,,2013-05-05 04:53:00,
2013-05-05 01:02:00,39.0,37.0,30.37,WNW,298,0.0,-999.0,91,-99.99,,,-99.99,,2013-05-05 05:02:00,
2013-05-05 01:12:00,39.0,37.0,30.37,WNW,298,0.0,-999.0,91,-99.99,,,-99.99,,2013-05-05 05:12:00,
2013-05-05 01:22:00,39.0,37.0,30.37,WNW,301,0.0,-999.0,92,-99.99,,,-99.99,,2013-05-05 05:22:00,
2013-05-05 01:32:00,38.0,36.0,30.36,NW,309,0.0,-999.0,92,-99.99,,,-99.99,,2013-05-05 05:32:00,
2013-05-05 01:42:00,38.0,36.0,30.36,NW,309,0.0,-999.0,92,-99.99,,,-99.99,,2013-05-05 05:42:00,
2013-05-05 01:52:00,38.0,36.0,30.36,NW,308,0.0,-999.0,92,-99.99,,,-99.99,,2013-05-05 05:52:00,
2013-05-05 02:01:00,38.0,36.0,30.36,NW,312,0.0,-999.0,92,-99.99,,,-99.99,,2013-05-05 06:01:00,
2013-05-05 02:12:00,38.0,36.0,30.36,NW,312,0.0,-999.0,92,-99.99,,,-99.99,,2013-05-05 06:12:00,
2013-05-05 02:21:00,38.0,36.0,30.35,NW,308,0.0,-999.0,92,-99.99,,,-99.99,,2013-05-05 06:21:00,
2013-05-05 02:32:00,38.0,36.0,30.35,NW,304,0.0,-999.0,91,-99.99,,,-99.99,,2013-05-05 06:32:00,
2013-05-05 02:42:00,38.0,36.0,30.35,NW,304,0.0,-999.0,91,-99.99,,,-99.99,,2013-05-05 06:42:00,
2013-05-05 02:52:00,39.0,36.0,30.35,NW,304,0.0,-999.0,90,-99.99,,,-99.99,,2013-05-05 06:52:00,
2013-05-05 03:01:00,38.0,35.0,30.35,NW,304,0.0,-999.0,89,-99.99,,,-99.99,,2013-05-05 07:01:00,
2013-05-05 03:11:00,38.0,35.0,30.35,NW,304,0.0,-999.0,89,-99.99,,,-99.99,,2013-05-05 07:11:00,
2013-05-05 03:22:00,38.0,35.0,30.35,NW,304,0.0,-999.0,90,-99.99,,,-99.99,,2013-05-05 07:22:00,
2013-05-05 03:32:00,38.0,35.0,30.35,NW,304,0.0,-999.0,90,-99.99,,,-99.99,,2013-05-05 07:32:00,
2013-05-05 03:42:00,38.0,35.0,30.35,NW,304,0.0,-999.0,90,-99.99,,,-99.99,,2013-05-05 07:42:00,
2013-05-05 03:52:00,38.0,35.0,30.35,NW,304,0.0,-999.0,90,-99.99,,,-99.99,,2013-05-05 07:52:00,
2013-05-05 04:02:00,37.0,34.0,30.35,NW,304,0.0,-999.0,90,-99.99,,,-99.99,,2013-05-05 08:02:00,
2013-05-05 04:11:00,37.0,34.0,30.35,NW,304,0.0,-999.0,90,-99.99,,,-99.99,,2013-05-05 08:11:00,
2013-05-05 04:21:00,37.0,35.0,30.35,NW,304,0.0,-999.0,91,-99.99,,,-99.99,,2013-05-05 08:21:00,
2013-05-05 04:32:00,37.0,35.0,30.35,NW,304,0.0,-999.0,91,-99.99,,,-99.99,,2013-05-05 08:32:00,
2013-05-05 04:42:00,37.0,35.0,30.35,NW,304,0.0,-999.0,91,-99.99,,,-99.99,,2013-05-05 08:42:00,
2013-05-05 04:53:00,36.0,34.0,30.35,NW,304,0.0,-999.0,91,-99.99,,,-99.99,,2013-05-05 08:53:00,
2013-05-05 05:01:00,36.0,34.0,30.35,NW,304,0.0,-999.0,92,-99.99,,,-99.99,,2013-05-05 09:01:00,
2013-05-05 05:11:00,36.0,34.0,30.35,NW,304,0.0,-999.0,92,-99.99,,,-99.99,,2013-05-05 09:11:00,
2013-05-05 05:21:00,35.0,33.0,30.35,NW,304,0.0,-999.0,92,-99.99,,,-99.99,,2013-05-05 09:21:00,
2013-05-05 05:33:00,35.0,33.0,30.35,NW,304,0.0,-999.0,92,-99.99,,,-99.99,,2013-05-05 09:33:00,
2013-05-05 05:42:00,35.0,33.0,30.35,NW,304,0.0,-999.0,92,-99.99,,,-99.99,,2013-05-05 09:42:00,
2013-05-05 05:52:00,35.0,33.0,30.35,NW,304,0.0,-999.0,92,-99.99,,,-99.99,,2013-05-05 09:52:00,
2013-05-05 06:03:00,34.0,32.0,30.35,NW,304,0.0,-999.0,93,-99.99,,,-99.99,,2013-05-05 10:03:00,
2013-05-05 06:12:00,34.0,32.0,30.35,NW,304,0.0,-999.0,93,-99.99,,,-99.99,,2013-05-05 10:12:00,
2013-05-05 06:22:00,35.0,33.0,30.35,NW,304,0.0,-999.0,93,-99.99,,,-99.99,,2013-05-05 10:22:00,
2013-05-05 06:32:00,35.0,33.0,30.35,NW,304,0.0,-999.0,93,-99.99,,,-99.99,,2013-05-05 10:32:00,
2013-05-05 06:42:00,35.0,33.0,30.35,NW,304,0.0,-999.0,93,-99.99,,,-99.99,,2013-05-05 10:42:00,
2013-05-05 06:53:00,36.0,34.0,30.35,NW,304,0.0,-999.0,94,-99.99,,,-99.99,,2013-05-05 10:53:00,
2013-05-05 07:01:00,38.0,36.0,30.35,NW,304,0.0,-999.0,94,-99.99,,,-99.99,,2013-05-05 11:01:00,
2013-05-05 07:12:00,38.0,36.0,30.35,NW,304,0.0,-999.0,94,-99.99,,,-99.99,,2013-05-05 11:12:00,
2013-05-05 07:22:00,40.0,39.0,30.35,NW,304,0.0,-999.0,95,-99.99,,,-99.99,,2013-05-05 11:22:00,
2013-05-05 07:32:00,43.0,41.0,30.35,NW,322,1.0,-999.0,94,-99.99,,,-99.99,,2013-05-05 11:32:00,
2013-05-05 07:42:00,43.0,41.0,30.35,NW,322,1.0,-999.0,94,-99.99,,,-99.99,,2013-05-05 11:42:00,
2013-05-05 07:52:00,46.0,41.0,30.36,NW,313,1.0,-999.0,83,-99.99,,,-99.99,,2013-05-05 11:52:00,
2013-05-05 08:02:00,49.0,40.0,30.35,NW,306,2.0,-999.0,70,-99.99,,,-99.99,,2013-05-05 12:02:00,
2013-05-05 08:11:00,49.0,40.0,30.35,NW,306,2.0,-999.0,70,-99.99,,,-99.99,,2013-05-05 12:11:00,
2013-05-05 08:22:00,50.0,39.0,30.36,West,281,3.0,-999.0,66,-99.99,,,-99.99,,2013-05-05 12:22:00,
2013-05-05 08:32:00,52.0,38.0,30.36,WNW,295,4.0,-999.0,58,-99.99,,,-99.99,,2013-05-05 12:32:00,
2013-05-05 08:42:00,52.0,38.0,30.36,WNW,295,4.0,-999.0,58,-99.99,,,-99.99,,2013-05-05 12:42:00,
2013-05-05 08:52:00,53.0,38.0,30.36,WSW,237,3.0,-999.0,56,-99.99,,,-99.99,,2013-05-05 12:52:00,
2013-05-05 09:01:00,53.0,37.0,30.36,WNW,287,5.0,-999.0,54,-99.99,,,-99.99,,2013-05-05 13:01:00,
2013-05-05 09:11:00,53.0,37.0,30.36,WNW,287,5.0,-999.0,54,-99.99,,,-99.99,,2013-05-05 13:11:00,
2013-05-05 09:21:00,54.0,37.0,30.36,WNW,298,5.0,-999.0,53,-99.99,,,-99.99,,2013-05-05 13:21:00,
2013-05-05 09:32:00,54.0,38.0,30.36,WNW,282,2.0,-999.0,54,-99.99,,,-99.99,,2013-05-05 13:32:00,
2013-05-05 09:42:00,54.0,38.0,30.36,WNW,282,2.0,-999.0,54,-99.99,,,-99.99,,2013-05-05 13:42:00,
2013-05-05 09:52:00,55.0,38.0,30.36,SW,233,4.0,-999.0,52,-99.99,,,-99.99,,2013-05-05 13:52:00,
2013-05-05 10:02:00,55.0,39.0,30.36,NW,309,4.0,-999.0,54,-99.99,,,-99.99,,2013-05-05 14:02:00,
2013-05-05 10:11:00,55.0,39.0,30.36,NW,309,4.0,-999.0,54,-99.99,,,-99.99,,2013-05-05 14:11:00,
2013-05-05 10:21:00,54.0,38.0,30.36,SW,227,3.0,-999.0,54,-99.99,,,-99.99,,2013-05-05 14:21:00,
2013-05-05 10:32:00,55.0,40.0,30.35,West,272,3.0,-999.0,57,-99.99,,,-99.99,,2013-05-05 14:32:00,
2013-05-05 10:42:00,55.0,40.0,30.35,West,272,3.0,-999.0,57,-99.99,,,-99.99,,2013-05-05 14:42:00,
2013-05-05 10:52:00,54.0,42.0,30.35,South,172,6.0,-999.0,64,-99.99,,,-99.99,,2013-05-05 14:52:00,
2013-05-05 11:02:00,53.0,42.0,30.35,South,191,7.0,-999.0,66,-99.99,,,-99.99,,2013-05-05 15:02:00,
2013-05-05 11:11:00,53.0,42.0,30.35,South,191,7.0,-999.0,66,-99.99,,,-99.99,,2013-05-05 15:11:00,
2013-05-05 11:21:00,53.0,42.0,30.35,South,178,6.0,-999.0,67,-99.99,,,-99.99,,2013-05-05 15:21:00,
2013-05-05 11:33:00,53.0,42.0,30.35,SSW,212,9.0,-999.0,65,-99.99,,,-99.99,,2013-05-05 15:33:00,
2013-05-05 11:43:00,53.0,42.0,30.35,SSW,212,9.0,-999.0,65,-99.99,,,-99.99,,2013-05-05 15:43:00,
2013-05-05 11:53:00,54.0,41.0,30.35,South,175,8.0,-999.0,61,-99.99,,,-99.99,,2013-05-05 15:53:00,
2013-05-05 12:03:00,56.0,41.0,30.35,South,186,5.0,-999.0,56,-99.99,,,-99.99,,2013-05-05 16:03:00,
2013-05-05 12:12:00,56.0,41.0,30.35,South,186,5.0,-999.0,56,-99.99,,,-99.99,,2013-05-05 16:12:00,
2013-05-05 12:23:00,55.0,42.0,30.34,SSW,193,9.0,-999.0,61,-99.99,,,-99.99,,2013-05-05 16:23:00,
2013-05-05 12:32:00,55.0,42.0,30.34,SSW,212,7.0,-999.0,61,-99.99,,,-99.99,,2013-05-05 16:32:00,
2013-05-05 12:42:00,55.0,42.0,30.34,SSW,212,7.0,-999.0,61,-99.99,,,-99.99,,2013-05-05 16:42:00,
2013-05-05 12:53:00,55.0,41.0,30.34,SSE,168,5.0,-999.0,59,-99.99,,,-99.99,,2013-05-05 16:53:00,
2013-05-05 13:02:00,56.0,41.0,30.34,WSW,243,9.0,-999.0,57,-99.99,,,-99.99,,2013-05-05 17:02:00,
2013-05-05 13:12:00,56.0,41.0,30.34,WSW,243,9.0,-999.0,57,-99.99,,,-99.99,,2013-05-05 17:12:00,
2013-05-05 13:23:00,56.0,39.0,30.33,SW,230,5.0,-999.0,52,-99.99,,,-99.99,,2013-05-05 17:23:00,
2013-05-05 13:32:00,56.0,40.0,30.34,SW,216,8.0,-999.0,54,-99.99,,,-99.99,,2013-05-05 17:32:00,
2013-05-05 13:42:00,56.0,40.0,30.34,SW,216,8.0,-999.0,54,-99.99,,,-99.99,,2013-05-05 17:42:00,
2013-05-05 13:52:00,56.0,40.0,30.34,SW,227,7.0,-999.0,55,-99.99,,,-99.99,,2013-05-05 17:52:00,
2013-05-05 14:01:00,55.0,41.0,30.33,South,181,5.0,-999.0,59,-99.99,,,-99.99,,2013-05-05 18:01:00,
2013-05-05 14:12:00,55.0,41.0,30.33,South,181,5.0,-999.0,59,-99.99,,,-99.99,,2013-05-05 18:12:00,
2013-05-05 14:21:00,54.0,40.0,30.33,SSW,210,5.0,-999.0,60,-99.99,,,-99.99,,2013-05-05 18:21:00,
2013-05-05 14:32:00,54.0,40.0,30.34,South,182,7.0,-999.0,60,-99.99,,,-99.99,,2013-05-05 18:32:00,
2013-05-05 14:42:00,54.0,40.0,30.34,South,182,7.0,-999.0,60,-99.99,,,-99.99,,2013-05-05 18:42:00,
2013-05-05 14:52:00,53.0,39.0,30.33,SSW,192,10.0,-999.0,60,-99.99,,,-99.99,,2013-05-05 18:52:00,
2013-05-05 15:01:00,53.0,39.0,30.33,South,186,9.0,-999.0,60,-99.99,,,-99.99,,2013-05-05 19:01:00,
2013-05-05 15:11:00,53.0,39.0,30.33,South,186,9.0,-999.0,60,-99.99,,,-99.99,,2013-05-05 19:11:00,
2013-05-05 15:21:00,54.0,40.0,30.33,South,188,7.0,-999.0,60,-99.99,,,-99.99,,2013-05-05 19:21:00,
2013-05-05 15:32:00,53.0,41.0,30.33,South,175,10.0,-999.0,64,-99.99,,,-99.99,,2013-05-05 19:32:00,
2013-05-05 15:42:00,53.0,41.0,30.33,South,175,10.0,-999.0,64,-99.99,,,-99.99,,2013-05-05 19:42:00,
2013-05-05 15:52:00,54.0,40.0,30.33,SSW,213,9.0,-999.0,59,-99.99,,,-99.99,,2013-05-05 19:52:00,
2013-05-05 16:01:00,53.0,39.0,30.32,SSW,199,10.0,-999.0,58,-99.99,,,-99.99,,2013-05-05 20:01:00,
2013-05-05 16:11:00,53.0,39.0,30.32,SSW,199,10.0,-999.0,58,-99.99,,,-99.99,,2013-05-05 20:11:00,
2013-05-05 16:21:00,52.0,39.0,30.32,South,182,9.0,-999.0,60,-99.99,,,-99.99,,2013-05-05 20:21:00,
2013-05-05 16:32:00,53.0,40.0,30.32,SW,232,7.0,-999.0,61,-99.99,,,-99.99,,2013-05-05 20:32:00,
2013-05-05 16:42:00,53.0,40.0,30.32,SW,232,7.0,-999.0,61,-99.99,,,-99.99,,2013-05-05 20:42:00,
2013-05-05 16:52:00,52.0,39.0,30.32,SW,220,5.0,-999.0,60,-99.99,,,-99.99,,2013-05-05 20:52:00,
2013-05-05 17:02:00,52.0,39.0,30.32,SW,232,4.0,-999.0,61,-99.99,,,-99.99,,2013-05-05 21:02:00,
2013-05-05 17:11:00,52.0,39.0,30.32,SW,232,4.0,-999.0,61,-99.99,,,-99.99,,2013-05-05 21:11:00,
2013-05-05 17:21:00,52.0,39.0,30.32,WSW,248,5.0,-999.0,60,-99.99,,,-99.99,,2013-05-05 21:21:00,
2013-05-05 17:33:00,51.0,38.0,30.32,SW,230,5.0,-999.0,61,-99.99,,,-99.99,,2013-05-05 21:33:00,
2013-05-05 17:42:00,51.0,38.0,30.32,SW,230,5.0,-999.0,61,-99.99,,,-99.99,,2013-05-05 21:42:00,
2013-05-05 17:53:00,52.0,40.0,30.32,WSW,256,4.0,-999.0,63,-99.99,,,-99.99,,2013-05-05 21:53:00,
2013-05-05 18:02:00,51.0,39.0,30.32,South,191,5.0,-999.0,63,-99.99,,,-99.99,,2013-05-05 22:02:00,
2013-05-05 18:12:00,51.0,39.0,30.32,South,191,5.0,-999.0,63,-99.99,,,-99.99,,2013-05-05 22:12:00,
2013-05-05 18:22:00,50.0,38.0,30.31,WSW,254,3.0,-999.0,64,-99.99,,,-99.99,,2013-05-05 22:22:00,
2013-05-05 18:33:00,50.0,39.0,30.31,SW,230,4.0,-999.0,65,-99.99,,,-99.99,,2013-05-05 22:33:00,
2013-05-05 18:42:00,50.0,39.0,30.31,SW,230,4.0,-999.0,65,-99.99,,,-99.99,,2013-05-05 22:42:00,
2013-05-05 18:52:00,49.0,38.0,30.31,SW,223,4.0,-999.0,66,-99.99,,,-99.99,,2013-05-05 22:52:00,
2013-05-05 19:02:00,48.0,38.0,30.31,SW,233,2.0,-999.0,69,-99.99,,,-99.99,,2013-05-05 23:02:00,
2013-05-05 19:12:00,48.0,38.0,30.31,SW,233,2.0,-999.0,69,-99.99,,,-99.99,,2013-05-05 23:12:00,
2013-05-05 19:21:00,48.0,39.0,30.31,SW,224,1.0,-999.0,70,-99.99,,,-99.99,,2013-05-05 23:21:00,
2013-05-05 19:32:00,47.0,38.0,30.31,SW,223,0.0,-999.0,72,-99.99,,,-99.99,,2013-05-05 23:32:00,
2013-05-05 19:42:00,47.0,38.0,30.31,SW,223,0.0,-999.0,72,-99.99,,,-99.99,,2013-05-05 23:42:00,
2013-05-05 19:52:00,46.0,37.0,30.31,WSW,253,1.0,-999.0,72,-99.99,,,-99.99,,2013-05-05 23:52:00,
2013-05-05 20:01:00,45.0,37.0,30.31,SW,234,0.0,-999.0,74,-99.99,,,-99.99,,2013-05-06 00:01:00,
2013-05-05 20:11:00,45.0,37.0,30.31,SW,234,0.0,-999.0,74,-99.99,,,-99.99,,2013-05-06 00:11:00,
2013-05-05 20:21:00,45.0,38.0,30.31,WSW,239,0.0,-999.0,75,-99.99,,,-99.99,,2013-05-06 00:21:00,
2013-05-05 20:32:00,44.0,37.0,30.31,SW,230,0.0,-999.0,77,-99.99,,,-99.99,,2013-05-06 00:32:00,
2013-05-05 20:41:00,44.0,37.0,30.31,SW,230,0.0,-999.0,77,-99.99,,,-99.99,,2013-05-06 00:41:00,
2013-05-05 20:52:00,44.0,38.0,30.31,SW,232,0.0,-999.0,79,-99.99,,,-99.99,,2013-05-06 00:52:00,
2013-05-05 21:01:00,43.0,37.0,30.31,SW,233,0.0,-999.0,80,-99.99,,,-99.99,,2013-05-06 01:01:00,
2013-05-05 21:11:00,43.0,37.0,30.31,SW,233,0.0,-999.0,80,-99.99,,,-99.99,,2013-05-06 01:11:00,
2013-05-05 21:21:00,43.0,38.0,30.32,WSW,250,0.0,-999.0,82,-99.99,,,-99.99,,2013-05-06 01:21:00,
2013-05-05 21:31:00,43.0,38.0,30.32,WSW,241,0.0,-999.0,82,-99.99,,,-99.99,,2013-05-06 01:31:00,
2013-05-05 21:42:00,43.0,38.0,30.32,WSW,241,0.0,-999.0,82,-99.99,,,-99.99,,2013-05-06 01:42:00,
2013-05-05 21:52:00,42.0,38.0,30.32,WSW,243,0.0,-999.0,84,-99.99,,,-99.99,,2013-05-06 01:52:00,
2013-05-05 22:02:00,42.0,38.0,30.32,WSW,243,0.0,-999.0,86,-99.99,,,-99.99,,2013-05-06 02:02:00,
2013-05-05 22:12:00,42.0,38.0,30.32,WSW,243,0.0,-999.0,86,-99.99,,,-99.99,,2013-05-06 02:12:00,
2013-05-05 22:21:00,42.0,39.0,30.32,WSW,243,0.0,-999.0,88,-99.99,,,-99.99,,2013-05-06 02:21:00,
2013-05-05 22:32:00,42.0,39.0,30.31,WSW,241,0.0,-999.0,89,-99.99,,,-99.99,,2013-05-06 02:32:00,
2013-05-05 22:42:00,42.0,39.0,30.31,WSW,241,0.0,-999.0,89,-99.99,,,-99.99,,2013-05-06 02:42:00,
2013-05-05 22:52:00,42.0,39.0,30.31,SW,236,0.0,-999.0,89,-99.99,,,-99.99,,2013-05-06 02:52:00,
2013-05-05 23:02:00,42.0,39.0,30.32,SW,234,0.0,-999.0,89,-99.99,,,-99.99,,2013-05-06 03:02:00,
2013-05-05 23:11:00,42.0,39.0,30.32,SW,234,0.0,-999.0,89,-99.99,,,-99.99,,2013-05-06 03:11:00,
2013-05-05 23:22:00,42.0,39.0,30.32,SW,236,0.0,-999.0,89,-99.99,,,-99.99,,2013-05-06 03:22:00,
2013-05-05 23:33:00,41.0,38.0,30.32,WSW,243,0.0,-999.0,89,-99.99,,,-99.99,,2013-05-06 03:33:00,
2013-05-05 23:42:00,41.0,38.0,30.32,WSW,243,0.0,-999.0,89,-99.99,,,-99.99,,2013-05-06 03:42:00,
2013-05-05 23:52:00,41.0,38.0,30.32,WSW,243,0.0,-999.0,90,-99.99,,,-99.99,,2013-05-06 03:52:00,